Regional Weather Roundup
Issued by NWS Pendleton, OR

Home | Current Version | Previous Version | Text Only | Print | Product List | Glossary On
Versions: 1 2 3 4 5 6 7 8 9 10 11 12 13 14 15 16 17 18 19 20 21 22 23 24 25 26 27 28 29 30 31 32 33 34 35 36 37 38 39 40 41 42 43 44 45 46 47 48 49 50
000
ASUS46 KPDT 232310
RWRPDT
PENDLETON REGIONAL WEATHER ROUNDUP
NATIONAL WEATHER SERVICE PENDLETON OREGON
400 PM PDT WED JUL 23 2014

NOTE: FAIR INDICATES FEW OR NO CLOUDS BELOW 12,000 FEET WITH NO
SIGNIFICANT WEATHER AND/OR OBSTRUCTIONS TO VISIBILITY.

# INDICATES UNOFFICIAL STATION AND DATA

WAZ520-240010-
EAST SLOPES OF WASHINGTON CASCADES

CITY            SKY/WX      TMP DP  RH  WIND    PRES   REMARKS
#BUMPING DAM    N/A         51  N/A N/A S2      N/A
#CLE ELUM HS    N/A         56  49  77  NW6     29.93S
#CLE ELUM LAKE  N/A         53  48  83  NW1     29.91R
#CLIFFDEL 2NW   N/A         53  51  93  W5      N/A
#EASTON DOT     N/A         52  50  93  N7      N/A
#ELK HTS DOT    N/A         58  58  100 W5      N/A
#GLENWOOD       N/A         59  53  80  SW3     29.99S
#MANASTASH CYN  N/A         57  53  86  CALM    29.98S
#NELSON         N/A         56  51  83  CALM    29.96R
#NELSON 3SW     N/A         52  49  89  SW1     30.14R
#PEOH POINT     N/A         50  49  96  SW5     N/A
#RONALD 2NW     N/A         55  49  80  NW3     29.88F
#SOUTH BLEWITT  N/A         57  56  96  CALM    N/A
#TROUT LAKE 1NE N/A         57  53  86  NW1     30.03R
$$

WAZ521-240010-
SIMCOE HIGHLANDS

CITY            SKY/WX      TMP DP  RH  WIND    PRES   REMARKS
#BICKLETON HS   N/A         57  48  72  W13G26  30.06S
#SATUS PASS DOT N/A         54  50  86  CALM    N/A
#GOLDENDALE 1NE N/A         59  52  78  SW6     N/A
#GOLDENDALE 1S  N/A         58  53  83  W8      30.03F
#GOLDENDALE 5WNWN/A         60  52  75  W16     29.98F
#GOODNOE HILLS  N/A         63  56  78  W21     29.97S
#LYLE 6NE       N/A         58  52  80  W9      30.00S
$$

WAZ026-240010-
KITTITAS VALLEY

CITY            SKY/WX      TMP DP  RH  WIND    PRES   REMARKS
ELLENSBURG AP   LGT RAIN    63  55  75  NW18    29.97F
#ELLENSBURG CWU N/A         61  56  84  NW5     29.88S
#ELLENSBURG 3NE N/A         60  56  87  N7      29.97F
#ELLENSBURG 1E  N/A         60  53  78  CALM    N/A
#KITTITAS 3S    N/A         61  56  84  W1      29.89F
#RYEGRASS DOT   N/A         57  57  100 W16     N/A
#THORP 6N       N/A         56  52  86  NW14    29.93R
$$

WAZ027-240010-
YAKIMA VALLEY

CITY            SKY/WX      TMP DP  RH  WIND    PRES   REMARKS
YAKIMA AIRPORT  MOCLDY      66  54  65  W7      29.97S
YAKIMA-VAGABOND MOCLDY      63  55  75  S12     29.98F
#COWICHE 1N     N/A         63  52  67  W9      30.11F
#DONALD 2NE     N/A         67  43  42  SW1     30.30S
#GRANDVIEW      N/A         66  55  68  W2      29.96F
#MABTON         N/A         66  58  75  SW2     29.98S
#MOXEE 2E       N/A         63  45  52  S13     29.92S
#NACHES 2SW     N/A         62  56  81  W3      29.98R
#TERRACE HTS    N/A         61  55  81  SW1     29.89F
#TOPPENISH      N/A         66  54  65  W3      29.88R
#WAPATO 4NE     N/A         67  43  42  SW1     30.30S
#WEST VALLEY    N/A         64  56  75  CALM    29.94S
#W YAKIMA       N/A         65  57  75  E1      29.91F
#WHITE SWAN 5E  N/A         68  54  61  W18G26  29.94F
#WILEY CITY 3W  N/A         65  56  73  S1      29.97R
$$

WAZ028-240010-
LOWER COLUMBIA BASIN...WASHINGTON

CITY            SKY/WX      TMP DP  RH  WIND    PRES   REMARKS
HANFORD         CLOUDY      64  54  70  W8      29.93
PASCO           PTCLDY      71  54  55  SW20G25 29.96R
PROSSER AWOS    N/A         66  57  73  S7      30.01F
RICHLAND AWOS   LGT RAIN    72  50  46  SW15G26 29.95S
#BASIN CITY 5SW N/A         69  55  61  W12     29.97R
#BENTON CITY    N/A         65  56  73  SW7     29.83F
#CONNELL 5N     N/A         63  57  81  W21G39  29.90R
#CONNELL 5NW    N/A         63  55  75  SW16G29 29.89R
#ELTOPIA        N/A         67  57  70  W6      29.89R
#ELTOPIA 6NW    N/A         64  56  75  SW16G29 28.94R
#KENNEWICK 3S   N/A         67  56  68  W3      29.93F
#PASCO-BROADMOORN/A         71  52  51  SW16    29.84R
#PATERSON       N/A         65  58  78  SW10    29.98R
#PROSSER DOT    N/A         64  57  78  W5      N/A
#PROSSER        N/A         64  53  67  W7      29.95F
#SAGEMOOR 2W    N/A         64  55  73  W15G29  29.80R
#TOUCHET 2S     N/A         69  58  68  W13G26  29.94R
#WEST PASCO     N/A         72  53  51  W7      29.94R
$$

WAZ029-240010-
FOOTHILLS OF THE BLUES...WASHINGTON

CITY            SKY/WX      TMP DP  RH  WIND    PRES   REMARKS
WALLA WALLA AP  CLOUDY      64  58  81  SW14    30.07R
#COLLEGE PLACE  N/A         70  57  63  SW2     30.04R
#DAYTON SCHOOL  N/A         64  54  70  SW16G35 30.04R
#DELANEY DOT    N/A         75  61  62  W13     N/A
#LOWDEN 2SE     N/A         65  58  78  W15G26  29.97R
#PLEASANT VIEW 1N/A         60  55  84  SW22G41 29.96R
#PRESCOTT       N/A         63  56  78  SW8     29.96R
#SUDBURY        N/A         66  N/A N/A CALM    N/A
#WHITMAN COLLEGEN/A         64  57  78  SE7G35  30.06R
#WAITSBURG 8N   N/A         60  49  67  S15     29.88R
#WALLA WALLA 5E N/A         67  55  65  S28     N/A
#WHITMAN MISSIONN/A         65  58  78  SW2     30.00R
$$

WAZ030-240010-
BLUE MOUNTAINS...WASHINGTON

CITY            SKY/WX      TMP DP  RH  WIND    PRES   REMARKS
$$

ORZ009-041-WAZ024-240010-
COLUMBIA RIVER GORGE

CITY            SKY/WX      TMP DP  RH  WIND    PRES   REMARKS
HOOD RIVER AP   CLOUDY      63  54  72  W8      30.09R
THE DALLES AP   CLOUDY      65  53  65  NW12G24 30.06S
#ARLINGTON AIRPON/A         65  56  73  W22     N/A
#ARLINGTON HS   N/A         68  55  63  N7      29.91F
#CELILO DOT     N/A         66  52  61  CALM    N/A
#MARYHILL       N/A         62  53  72  CALM    N/A
#MOSIER 1S      N/A         59  50  72  NW10    30.12S
#MURDOCK        N/A         65  57  75  W12     30.07R
#RUFUS DOT      N/A         65  53  65  N24G38  N/A

$$

ORZ510-240010-
NORTH CENTRAL OREGON

CITY            SKY/WX      TMP DP  RH  WIND    PRES   REMARKS
#CHENOWITH 1W   N/A         55  52  90  NW23    N/A
#COW CYN RST AREN/A         60  50  69  SW12    N/A
#DUFUR 9E       N/A         54  53  96  NW10    30.06R
#GRASS VALLEY 1SN/A         63  52  67  W12     30.02F
#KENT DOT       N/A         63  44  50  W16     N/A
#MAUPIN SCHOOL  N/A         68  52  57  W10     30.07S
#MORO SCHOOL    N/A         59  58  96  NW12    30.06F
#SHANIKO 5WSW   N/A         58  43  57  W13     N/A
#SHANIKO 4NW    N/A         58  49  72  W8      30.10S
#TYGH VALLEY 2NEN/A         67  54  63  SW8     29.99F
#WAPANITIA AIRPON/A         63  52  67  W9      30.01S
#WASCO DOT      N/A         64  52  65  W16     N/A
#WASCO 5NE      N/A         61  55  81  W8      30.00F
$$

ORZ511-240010-
CENTRAL OREGON

CITY            SKY/WX      TMP DP  RH  WIND    PRES   REMARKS
BEND AIRPORT    MOSUNNY     68  46  45  W14G24  30.10F
MADRAS AIRPORT  CLOUDY      64  46  52  W7      30.10S
REDMOND AIRPORT CLOUDY      64  49  58  NW15    30.09R
#BEND 6E        N/A         68  43  40  CALM    29.91F
#BEND 1SW       N/A         66  46  48  S1      N/A
#BEND-AWBREY    N/A         66  48  52  NE8     29.98R
#BEND-KIM LN    N/A         69  52  55  SW7     30.06F
#CROOKED RVR RANN/A         61  49  65  NW9     30.01R
#CULVER         N/A         63  48  58  SW7     30.06S
#LAKE BILLY CHINN/A         60  28  29  NW18    30.14R
#POWELL BUTTE 3EN/A         68  50  53  SW13    N/A
#POWELL BUTTE   N/A         68  54  61  N10     29.73S
#PRINEVILLE 3N  N/A         63  54  72  W5      29.94F


ORZ509-240010-
EAST SLOPES OF OREGON CASCADES

CITY            SKY/WX      TMP DP  RH  WIND    PRES   REMARKS
#BLUE BOX PASS  N/A         47  -4  11  NW2     N/A
#BLACK BUTTE RNCN/A         63  50  62  W1      30.00F
#CAMP SHERMAN   N/A         58  48  69  SW1     30.06F
#LA PINE DOT    N/A         63  37  38  SW14    N/A
#LA PINE 4NW    N/A         60  46  60  NW3     30.03S
#LAVA BUTTE DOT N/A         63  42  46  S3      N/A
#SISTERS AIRPOR N/A         59  52  78  N6      30.10R
#SISTERS ODOT   N/A         60  N/A N/A W6      N/A
#SISTERS 3N     N/A         60  32  35  SW2     30.13S
#SUNRIVER       N/A         63  48  58  N5      29.88S
#SUNRIVER AP    N/A         62  49  62  SW7     29.96S
#SUTTLE LK DOT  N/A         52  49  89  SE2     N/A
#TUMALO 3W      N/A         59  48  67  N9      29.87F
#WANOGA BUTTE D N/A         48  43  83  W15G25  N/A    WCI 42

$$

ORZ044-240010-
LOWER COLUMBIA BASIN...OREGON

CITY            SKY/WX      TMP DP  RH  WIND    PRES   REMARKS
HERMISTON       MOCLDY      70  58  66  W13     30.01F
#BOARDMAN SCHOOLN/A         66  57  73  W6      30.00S
#BOARDMAN 3W    N/A         69  64  84  W12     29.71S
#BOARDMAN 8SW   N/A         64  60  87  SW12    29.97F
#IONE SCHOOL    N/A         63  51  65  SW7     30.02F
#IRRIGON 4NW    N/A         67  61  81  SW14G32 N/A
#UMATILLA SCHOOLN/A         66  64  93  W10     30.06F
#UMATILLA       N/A         68  57  68  SW10    29.98F
$$

ORZ507-240010-
NORTHERN FOOTHILLS OF THE BLUES

CITY            SKY/WX      TMP DP  RH  WIND    PRES   REMARKS
PENDLETON AIRPT CLOUDY      63  54  72  W13     30.04R
#ADAMS 3WNW     N/A         62  56  81  SW13    29.97R
#ATHENA         N/A         62  56  81  SW6     30.01R
#HELIX 3N       N/A         61  55  81  SW22G29 30.00S
#HOLDMAN 6E     N/A         61  56  84  NW9     29.77
#M-F FERNDALE   N/A         63  56  78  CALM    30.03R
#M-F GROVE ELEM N/A         65  52  63  SW7     30.05R
#M-FREEWATER 5SEN/A         64  54  70  SW6     30.08R
#PDT AQUATIC CTRN/A         66  54  65  W8      30.03R
#PENDLETON DNTN N/A         65  53  65  SW5     30.01R
#PENDLETON 5NE  N/A         64  59  84  CALM    30.01F
#PDT SUNRIDGE   N/A         64  56  75  W5      30.06R
#PENDLETON 7NW  N/A         63  56  78  W10     29.93F
#TUTUILLA       N/A         66  58  75  W6      29.93F
#WESTON SCHOOL  N/A         60  54  81  NW10    30.04R

$$

ORZ508-240010-
SOUTHERN FOOTHILLS OF THE BLUES

CITY            SKY/WX      TMP DP  RH  WIND    PRES   REMARKS
#AJAX           N/A         N/A N/A N/A W12     30.07F
#CONDON SCHOOL  N/A         59  54  83  SW9     30.03S
#CONDON 5W      N/A         59  51  75  SW10    30.05F
#HEPPNER EOC    N/A         63  56  78  N2      29.93F
#HEPPNER 4NE    N/A         60  54  81  W8      29.96F
#LEXINGTON 2SE  N/A         65  56  73  W3      30.00F
#MIKKALO        N/A         64  57  78  NW12    30.04F
#RUGGS 5NE      N/A         60  53  78  W10     30.27S
#RUGGS 2SW      N/A         62  51  67  W12     30.01S

$$

ORZ502-503-240010-
BLUE MOUNTAINS

CITY            SKY/WX      TMP DP  RH  WIND    PRES   REMARKS
MEACHAM         MOCLDY      59  54  83  CALM    30.12F
#BATTLE MTN DOT N/A         57  57  100 CALM    N/A
#HARDMAN 10S    N/A         60  46  60  S9      30.13F
#HEPPNER 15SE   N/A         55  50  83  S2      30.01F
#LADD CYN SMT   N/A         61  42  50  W18G29  N/A
#LADD CREEK ODOTN/A         63  48  58  SW6G28  N/A
#LONG CREEK HS  N/A         62  49  62  N9      30.04F
#PIKES PEAK     N/A         54  53  96  SW25G38 27.99S
#TROY SCHOOL    N/A         83  61  48  N10     29.63R
#UKIAH          N/A         61  59  93  CALM    29.97R
#WESTON 4E      N/A         54  51  90  SW6     29.93R
$$

ORZ505-240010-
JOHN DAY BASIN

CITY            SKY/WX      TMP DP  RH  WIND    PRES   REMARKS
JOHN DAY        PTCLDY      76  47  36  W24G30  30.04R
#JOHN DAY KJDY  N/A         82  44  26  W2      29.93R
#MONUMENT HS    N/A         69  47  45  NW8     29.85F
#MT. VERNON 5SE N/A         72  48  43  N5      30.01S
#WINLOCK        N/A         66  52  61  N2      30.15F
$$

ORZ506-240010-
OCHOCO AND JOHN DAY HIGHLANDS

CITY            SKY/WX      TMP DP  RH  WIND    PRES   REMARKS
#BUCK CREEK DOT N/A         73  52  48  S6      N/A
#HORSE RIDGE DO N/A         65  44  46  W15     N/A
#KEYES SMT DOT  N/A         64  46  52  SW20    N/A
#PAULINA SCHOOL N/A         N/A N/A N/A S1      30.09S
#PINE MTN OBS   N/A         56  42  59  W7      N/A
#PRAIRIE CITY   N/A         79  47  32  W8      29.80R
#SENECA 9NW     N/A         71  48  44  SW3     29.86S
$$

ORZ049-240010-
GRANDE RONDE VALLEY

CITY            SKY/WX      TMP DP  RH  WIND    PRES   REMARKS
LA GRANDE       MOCLDY      64  45  50  NW23G43 30.02R
#COVE           N/A         68  56  65  W12     29.95R
#COVE SCHOOL    N/A         72  54  53  W3      30.00R
#COVE 6NW       N/A         76  56  50  W13     29.86R
#ELGIN 3N       N/A         62  48  60  W14     29.74R
#ELGIN 1E       N/A         66  51  58  CALM    N/A
#IMBLER SCHOOL  N/A         63  50  62  CALM    30.00R
#ISLAND CITY 4N N/A         64  52  65  SW17G35 29.79R
#LADD CYN DOT   N/A         64  47  54  W23G46  N/A
#UNION 1S       N/A         68  52  57  NW8     29.79R
$$

ORZ050-240010-
WALLOWA COUNTY

CITY            SKY/WX      TMP DP  RH  WIND    PRES   REMARKS
#ENTERPRISE AP  N/A         66  35  32  CALM    29.99
#ENTERPRISE HS  N/A         81  47  30  S3      29.96S
#IMNAHA 10S     N/A         88  44  22  SW7     29.88F
#JOSEPH 3N      N/A         81  48  32  S14     29.99F
#LOSTINE        N/A         85  39  20  W6      29.57S
#MT HOWARD 8000 N/A         59  39  47  S5      30.25F
#PROMISE 1S     N/A         70  57  63  E22     29.95R
#SHEEP RDG 7000 N/A         65  37  35  CALM    29.82F
#WALLOWA SCHOOL N/A         74  56  53  NW7     30.69R



$$



USA.gov is the U.S. government's official web portal to all federal, state and local government web resources and services.